Location: Rancho Del Sol Observatory
(38.7214°N, 120.6350°W)
Time: 04:34:29
(UTC-07:00)

Cosmos 2221 Rocket - Visible Passes

Search period start: 21 April 2018 00:00
Search period end: 01 May 2018 00:00
Orbit: 622 x 647 km, 82.5° (Epoch: 21 April)

Date Brightness Start Highest point End Pass type
(mag) Time Alt. Az. Time Alt. Az. Time Alt. Az.
21 Apr 6.6 00:28:13 14° N 00:28:13 14° N 00:28:48 10° N visible
22 Apr 6.6 00:50:03 13° NNW 00:50:03 13° NNW 00:50:38 10° NNW visible
22 Apr 6.4 23:34:24 13° NNE 23:34:24 13° NNE 23:34:54 10° NNE visible
23 Apr 6.2 23:56:12 17° N 23:56:12 17° N 23:57:16 10° N visible
25 Apr 6.3 00:17:59 17° NNW 00:17:59 17° NNW 00:19:14 10° N visible
25 Apr 6.1 23:02:18 15° NNE 23:02:18 15° NNE 23:03:12 10° NNE visible
26 Apr 6.5 00:39:45 14° NW 00:39:45 14° NW 00:40:39 10° NNW visible
26 Apr 5.8 23:24:03 22° NNE 23:24:03 22° NNE 23:25:42 10° N visible
27 Apr 5.8 23:45:46 25° NNW 23:45:46 25° NNW 23:47:47 10° N visible
28 Apr 5.7 22:30:01 17° NE 22:30:01 17° NE 22:31:26 10° NNE visible
29 Apr 6.1 00:07:28 19° NW 00:07:28 19° NW 00:09:24 10° NNW visible
29 Apr 5.1 22:51:41 30° NNE 22:51:41 30° NNE 22:54:06 10° NNE visible
30 Apr 6.5 00:29:08 11° WNW 00:29:08 11° WNW 00:29:51 10° NW visible
30 Apr 4.9 23:13:20 38° NNW 23:13:20 38° NNW 23:16:18 10° N visible
